Regional Weather Roundup
Issued by NWS Little Rock, AR

Home | Current Version | Previous Version | Text Only | Print | Product List | Glossary On
Versions: 1 2 3 4 5 6 7 8 9 10 11 12 13 14 15 16 17 18 19 20 21 22 23 24 25 26 27 28 29
000
ASUS44 KLZK 011105
RWRLZK

WEATHER ROUNDUP FOR ARKANSAS
NATIONAL WEATHER SERVICE LITTLE ROCK AR
600 AM CDT SAT NOV 01 2014

NOTE: "FAIR" INDICATES FEW OR NO CLOUDS BELOW 12,000 FEET WITH NO
SIGNIFICANT WEATHER AND/OR OBSTRUCTIONS TO VISIBILITY.

ARZ001-003-010-029-011200-
NORTHWEST ARKANSAS

CITY           SKY/WX    TMP DP  RH WIND       PRES   REMARKS
FAYETTEVILLE   FAIR      25  23  92 CALM      30.43R
FORT SMITH     CLEAR     32  27  81 CALM      30.45R
HARRISON       PTCLDY    26  20  77 CALM      30.43R
BENTONVILLE    CLEAR     30  19  64 CALM      30.43R
ROGERS         PTCLDY    26  21  81 NE5       30.43S WCI  20
SILOAM SPGS    CLEAR     28  16  59 E5        30.44R WCI  23
HIGHFILL       CLEAR     28  20  71 N6        30.42S WCI  22
SPRINGDALE     CLEAR     30  23  74 CALM      30.44
$$

ARZ004-005-016-011200-
NORTH CENTRAL ARKANSAS

CITY           SKY/WX    TMP DP  RH WIND       PRES   REMARKS
BATESVILLE     CLEAR     30  21  69 W3        30.43R
FLIPPIN        CLEAR     30  19  64 N3        30.45R
MTN HOME       CLEAR     26  21  81 CALM      30.44R
$$

ARZ040-041-011200-
WEST CENTRAL ARKANSAS

CITY           SKY/WX    TMP DP  RH WIND       PRES   REMARKS
MENA             N/A     32  28  86 CALM        N/A
MOUNT IDA      CLEAR     29  26  89 CALM      30.40R
$$

ARZ009-017-025-026-028-011200-
NORTHEAST ARKANSAS

CITY           SKY/WX    TMP DP  RH WIND       PRES   REMARKS
JONESBORO      CLEAR     34  24  67 NW6       30.41R WCI  29
NEWPORT        CLEAR     31  23  72 N8        30.43R WCI  24
WALNUT RIDGE   CLEAR     30  21  69 NW8       30.42R WCI  23
BLYTHEVILLE    CLEAR     33  26  75 N14       30.38R WCI  23
$$

ARZ022-023-033-042-044-011200-
CENTRAL ARKANSAS

CITY           SKY/WX    TMP DP  RH WIND       PRES   REMARKS
LITTLE ROCK    CLEAR     35  22  58 NW7       30.44R WCI  29
N LITTLE ROCK    N/A     33  25  72 NW6       30.44R WCI  28
JACKSONVILLE   CLEAR     28  23  82 NW3       30.43R
SEARCY         CLEAR     34  22  61 NW6       30.45R WCI  29
HOT SPRINGS    CLEAR     39  19  44 VRB7      30.43R
RUSSELLVILLE   CLEAR     29  25  85 CALM      30.45R
$$

ARZ036-011200-
EAST ARKANSAS

CITY           SKY/WX    TMP DP  RH WIND       PRES   REMARKS
WEST MEMPHIS   CLEAR     35  25  66 N10       30.37R WCI  27
$$

ARZ050-053-066-070-073-011200-
SOUTHWEST ARKANSAS

CITY           SKY/WX    TMP DP  RH WIND       PRES   REMARKS
ARKADELPHIA    FAIR      37  25  62 NE5       30.44R
CAMDEN         CLEAR     32  28  86 CALM      30.42R
TEXARKANA      CLEAR     34  26  72 CALM      30.41R
DE QUEEN       FOG       30  29  96 CALM      30.42R VSB 1
$$

ARZ056-057-069-011200-
SOUTHEAST ARKANSAS

CITY           SKY/WX    TMP DP  RH WIND       PRES   REMARKS
PINE BLUFF     CLEAR     36  23  59 N9        30.43R
STUTTGART      CLEAR     34  25  69 N7        30.43R WCI  28
MONTICELLO     CLEAR     35  27  72 VRB3      30.40R

$$





USA.gov is the U.S. government's official web portal to all federal, state and local government web resources and services.